SL-12 R/B(AUX MOTOR)

Satellite information

Favourite Embed

Satellite Type and Status

ROCKET BODYIN ORBIT

Key statistics

Satellite SL-12 R/B(AUX MOTOR) at a glance.

Uptime

6249

Days in orbit

Revolutions

≈ 4.2

Per day

Orbit

HEO

HEO

Inclination

65.2

Latest

Satellite identification and parameters

Extended collection of information and parameters for SL-12 R/B(AUX MOTOR).

Object identification

Identified? True

Debris? False

Object name: SL-12 R/B(AUX MOTOR)

International designator: 2008-046H

Object number (NORAD): 33385

Object ID (CCSDS): 33385

Country: COMMONWEALTH OF INDEPENDENT STATES (CIS)

Current information (Y/N): Y

RCS size: MEDIUM

Orbital parameters

Period: 341.323 minutes

Inclination: 65.1646 deg

SMA: 16178.448 km

Apoapsis: 18700.428 km

Periapsis: 900.199 km

RAAN: 146.1596 deg

Eccentricy: 0.55012165

Argument of periapsis: 283.8867 deg

Mean anomaly: 23.229 deg

Mean motion: 4.21888291 rev/day

Mean motion (dot): -0.00000167 rev/day2

B* drag term: -0.00567298 1/REarth

Two-line elements (TLE)

Creation date: Sept. 22, 2025, 7:16 p.m.

Reference frame: TEME

Reference center: EARTH

Epoch: Sept. 21, 2025, 2:42 a.m. UTC

TLE line 0: 0 SL-12 R/B(AUX MOTOR)

TLE line 1: 1 33385U 08046H 25264.11282857 -.00000167 00000-0 -56730-2 0 9992

TLE line 2: 2 33385 65.1646 146.1596 5501217 283.8867 23.2290 4.21888291174134

Live tracking on map

Real-time ground track for satellite SL-12 R/B(AUX MOTOR).

In-orbit conjunctions

There are no conjunctions computed for SL-12 R/B(AUX MOTOR), at the moment. Check back to stay up to date, as we update our databases every day.

Go to all conjunctions

Associated space launch

GLONASS navigation satellites

SL-12 R/B(AUX MOTOR) was lifted into orbit during the mission ‘Proton-M | Uragan-M 15 to 17’, on board a Proton-M space rocket.

The launch took place on Sept. 25, 2008, 8:49 a.m. from 81/23 (81L).

For more information about the launch, click the button.

Launch to space Proton-M | Uragan-M 15 to 17
Proton-M | Uragan-M 15 to 17

Agency: N/A

Status: Launch Successful

Launch date: Sept. 25, 2008, 8:49 a.m. UTC

Rocket: Proton-M

Launch pad: 81/23 (81L)

Location: Baikonur Cosmodrome, Republic of Kazakhstan

...

Latest news about this satellite

There are no fresh news available about this satellite. Check back as we update our databases every day.


Newsletter sign-up

Weekly statistics, charts and insights to help you stay on top of the space industry.